Location: Jetmore Rural Fire Department
(38.0855°N, 99.8928°W)
Time: 14:40:35
(UTC+00:00)

Daily predictions for brighter satellites

Satellite Brightness Start Highest point End
(mag) Time Altitude Azimuth Time Altitude Azimuth Time Altitude Azimuth
STARLINK-68 3.6 12:03:13 40° NW 12:04:34 75° NE 12:08:35 10° SE
STARLINK-58 3.6 12:04:42 38° NW 12:06:09 74° NE 12:10:09 10° SE
STARLINK-62 3.5 12:06:24 37° NW 12:07:53 79° NE 12:11:55 10° SE
STARLINK-63 3.5 12:07:53 35° NW 12:09:28 79° NE 12:13:28 10° SE
SJ-12 3.8 12:05:51 10° N 12:09:57 66° WNW 12:14:00 10° SSW
USA 234 4.4 12:05:14 10° NNE 12:10:10 23° NNW 12:12:11 20° NW
Meteor 1-27 Rocket 3.8 12:04:38 10° NNW 12:10:30 63° W 12:16:18 10° S
Cosmos 1190 Rocket 4.1 12:07:00 10° NNW 12:12:14 75° ENE 12:17:26 10° SSE
STARLINK-72 3.5 12:10:56 33° NW 12:12:40 81° NE 12:16:41 10° SE
BREEZE-M DEB 3.7 12:10:11 23° WNW 12:14:28 85° NNE 12:18:21 10° ESE
Okean 1-7 4.3 12:10:39 10° N 12:14:52 43° E 12:19:02 10° SSE
STARLINK-59 3.4 12:14:12 31° NW 12:16:02 90° WNW 12:20:03 10° SE
SL-16 R/B 2.3 12:13:25 18° NW 12:17:36 57° WSW 12:23:07 10° S
STARLINK-55 3.4 12:17:23 29° NW 12:19:21 85° SW 12:23:22 10° SE
PSLV R/B 4.4 12:15:45 10° N 12:19:30 35° WNW 12:23:15 10° SW
Geosat 4.4 12:14:57 10° S 12:19:42 42° WSW 12:22:47 20° NW
PSLV R/B 2.7 12:19:15 43° SW 12:19:48 61° SSE 12:22:14 10° ENE
Okean O Rocket 1.6 12:16:10 10° NNE 12:20:34 89° ESE 12:24:57 10° SSW
COSMO-SKYMED 1 2.7 12:16:37 10° S 12:20:50 52° W 12:24:51 11° NNW
STARLINK-28 3.4 12:19:00 28° NW 12:21:01 81° SW 12:25:01 10° SE
Cosmos 1484 Rocket 3.5 12:19:51 10° N 12:23:20 30° WNW 12:26:45 10° SW
DELTA 2 R/B(2) 3.0 12:24:17 63° ENE 12:24:17 63° ENE 12:26:04 10° E
STARLINK-53 3.5 12:22:08 26° NW 12:24:17 76° SW 12:28:17 10° SE
Cosmos 2242 Rocket 3.6 12:20:42 10° NNW 12:25:13 64° W 12:29:40 10° S
STARLINK-54 3.5 12:23:47 25° WNW 12:25:59 72° SW 12:29:58 10° SE
Cosmos 1420 Rocket 4.3 12:21:20 10° S 12:26:31 70° ESE 12:31:41 10° NNE
STARLINK-34 3.5 12:26:58 24° WNW 12:29:17 67° SW 12:33:16 10° SE
Cosmos 2237 Rocket 3.8 12:31:48 14° W 12:31:48 14° W 12:34:20 10° SW
STARLINK-61 4.3 12:29:50 23° W 12:31:47 37° SW 12:35:31 10° SSE
Cosmos 1470 Rocket 4.4 12:28:29 10° SW 12:32:21 29° WNW 12:36:15 10° NNW
STARLINK-81 3.5 12:29:53 22° NW 12:32:24 69° SW 12:36:23 10° SE
STARLINK-24 3.6 12:31:41 21° WNW 12:34:11 60° SW 12:38:08 10° SE
Meteor 1-20 Rocket 4.3 12:28:29 10° S 12:34:18 84° W 12:40:11 10° N
STARLINK-77 3.6 12:33:04 20° WNW 12:35:42 64° SW 12:39:39 10° SE
Lacrosse 5 2.4 12:32:34 19° WNW 12:35:50 42° SW 12:40:34 10° SSE
STARLINK-25 3.6 12:34:38 20° WNW 12:37:18 62° SW 12:41:16 10° SE
Cosmos 1340 4.1 12:33:50 10° SSE 12:37:22 41° E 12:40:57 10° NNE
Nadezhda 4 Rocket 4.3 12:33:03 10° NNW 12:38:55 45° W 12:44:43 10° SSW
STARLINK-71 3.8 12:36:28 19° WNW 12:39:09 53° SW 12:43:03 10° SSE
BREEZE-M DEB (TANK) 3.4 12:38:22 12° NNW 12:39:36 18° NNE 12:41:33 10° E
STARLINK-79 3.7 12:37:49 18° WNW 12:40:37 57° SW 12:44:33 10° SSE
Cosmos 1703 Rocket 3.5 12:36:50 10° N 12:41:18 76° W 12:45:41 10° S
METEOR-M 4.4 12:36:46 10° N 12:41:51 46° WNW 12:46:55 10° SW
ATLAS 5 CENTAUR R/B 3.6 12:41:48 11° NW 12:42:06 12° NW 12:43:43 10° NNW
STARLINK-78 3.8 12:39:27 18° WNW 12:42:18 54° SW 12:46:13 10° SSE
STARLINK-57 3.9 12:41:08 17° WNW 12:44:02 50° SW 12:47:56 10° SSE
USA 116 4.2 12:41:00 10° S 12:44:48 45° W 12:49:08 10° NNW
STARLINK-49 3.9 12:42:36 16° WNW 12:45:35 51° SW 12:49:28 10° SSE
Cosmos 1461 3.9 12:41:30 10° NNW 12:45:36 46° NE 12:49:50 10° SE
Cosmos 1346 Rocket 3.7 12:43:02 10° S 12:46:48 52° E 12:50:33 10° NNE
STARLINK-27 3.9 12:44:11 16° WNW 12:47:13 49° SW 12:51:05 10° SSE
STARLINK-74 4.0 12:45:51 15° WNW 12:48:57 47° SW 12:52:48 10° SSE
Cosmos 1452 Rocket 3.6 12:44:18 10° SSW 12:49:34 89° ESE 12:54:53 10° NNE
NOAA 6 4.2 12:44:39 10° N 12:49:37 51° WNW 12:54:33 10° SSW
STARLINK-39 4.0 12:47:23 14° WNW 12:50:31 45° SW 12:54:22 10° SSE
STARLINK 4.1 12:48:58 14° WNW 12:52:10 43° SW 12:55:58 10° SSE
Cosmos 1812 4.4 12:51:41 13° WNW 12:52:39 14° W 12:54:42 10° WSW
STARLINK-75 4.4 12:50:26 13° WNW 12:53:37 35° SW 12:57:21 10° SSE
Timation 1 Rocket 4.4 12:47:56 10° SSW 12:53:53 85° ESE 12:59:53 10° NNE
STARLINK-42 4.2 12:50:41 13° WNW 12:53:53 39° SW 12:57:38 10° SSE
Cosmos 2084 Rocket 4.0 12:49:56 10° NNW 12:54:20 60° NE 12:58:40 10° SE
Cosmos 1869 Rocket 3.5 12:50:49 10° SSW 12:55:05 63° W 12:59:23 10° N
STARLINK-41 4.2 12:51:45 13° WNW 12:55:10 41° SW 12:59:03 10° SSE
STARLINK-21 4.2 12:52:10 13° WNW 12:55:29 40° SW 12:59:14 10° SSE
STARLINK-64 4.3 12:53:10 12° WNW 12:56:38 39° SW 13:00:29 10° SSE
STARLINK-45 4.4 12:54:03 12° WNW 12:57:19 34° SW 13:00:58 10° SSE
STARLINK-37 4.4 12:54:14 12° WNW 12:57:38 36° SW 13:01:23 10° SSE
Helios 1A Rocket 3.6 12:55:34 10° N 12:59:10 32° WNW 13:02:44 10° SW
H-2A R/B 3.7 12:55:53 10° SW 12:59:24 31° S 13:12:22 10° ESE
STARLINK-76 4.4 12:56:57 11° WNW 13:00:25 35° SW 13:04:05 10° SSE
SMAP 3.2 12:56:47 10° NNE 13:01:29 83° ESE 13:06:07 10° SSW
Orbus 7S? 3.1 12:58:47 10° SSW 13:01:54 60° SE 13:04:20 10° NE
Cosmos 2026 Rocket 4.0 12:55:51 10° NNW 13:01:57 69° W 13:08:08 10° S
STARLINK 4.4 12:58:33 11° WNW 13:02:04 34° SW 13:05:43 10° SSE
Meteor 1-14 Rocket 4.3 12:56:20 10° SSW 13:02:11 71° W 13:08:09 10° N
SL-24 R/B 4.3 13:00:34 10° S 13:05:26 61° WSW 13:09:46 10° NNW
Cosmos 407 Rocket 4.4 13:01:28 10° NW 13:06:01 29° W 13:10:35 10° SSW
STARLINK 4.5 13:02:42 10° WNW 13:06:30 35° SW 13:10:16 10° SSE
Cosmos 2279 Rocket 4.0 13:00:39 10° S 13:06:50 82° W 13:13:05 10° N
ALOS 3.4 13:03:39 10° NNW 13:07:13 22° WNW 13:10:45 10° WSW
Cosmos 1634 Rocket 4.2 13:02:59 10° SSW 13:08:57 47° W 13:14:55 10° N
Cosmos 2263 Rocket 2.3 13:06:10 10° SW 13:11:38 55° WNW 13:17:07 10° NNE
BREEZE-M DEB (TANK) 3.8 23:30:58 10° SW 23:34:49 75° SE 23:49:29 10° NE
SL-8 R/B 4.3 23:40:04 10° NW 23:44:37 40° NNE 23:49:10 10° E
STARLINK-46 2.8 23:42:45 10° SSW 23:45:25 53° SE 23:48:05 10° ENE
Helios 1A Rocket 3.7 23:41:39 10° S 23:45:43 58° W 23:49:47 10° NNW
Shenzhou-11 Module 1.8 23:43:00 10° WSW 23:45:44 71° NNW 23:48:27 10° ENE
Meteor 1-14 Rocket 4.4 23:40:58 10° N 23:46:55 84° E 23:52:44 10° S
Cosmos 1707 Rocket 3.7 23:42:36 10° S 23:46:58 60° E 23:51:22 10° NNE
Feng Yun 1-1 Rocket 4.3 23:42:29 10° SE 23:47:42 52° ENE 23:52:55 10° N
ERBS 3.9 23:45:45 10° N 23:48:03 17° NE 23:50:21 10° E
Lacrosse 5 rocket 2.1 23:46:16 10° SSW 23:50:21 39° SE 23:54:13 10° ENE
Cosmos 1602 3.7 23:49:34 10° N 23:53:27 80° E 23:57:19 10° S
Cosmos 2237 Rocket 3.3 23:49:25 10° SSE 23:53:53 24° ESE 23:58:22 10° NE
